Temp
11 11 11 11 11 11 10 10 10 10 10 10 10 10 10 10 10 10 10 10 9 9 9 9 9 8 8 8 8 8 8 8 8 8 8 8 8 8 8 8 7 7 7 7 7 7 7 7 7 7 7 7 7 7 7 7 7 7 7 7 7 7 7 7 7 7 7 7 7
11 11 11 11 11 11 10 10 10 10 10 10 10 10 10 10 10 10 9 9 9 9 9 9 8 8 8 8 8 8 8 8 8 8 8 8 8 8 7 7 7 7 7 7 7 7 7 7 7 6 6 7 7 7 7 7 7 7 7 7 7 7 7 7 7 7 7 7 7
11 11 11 11 11 11 11 10 10 10 10 10 10 10 9 9 9 9 9 9 9 9 8 8 8 8 8 8 8 8 8 8 7 7 7 7 7 7 7 7 7 7 7 7 7 7 6 6 6 6 6 6 7 7 7 7 7 7 7 7 7 6 6 6 7 7 7 7 7
11 11 11 11 11 10 10 10 10 10 10 9 9 9 9 9 9 9 9 8 8 8 8 8 8 8 7 7 7 7 7 7 7 7 7 7 7 7 7 7 7 7 7 7 6 6 6 6 6 6 6 6 6 7 7 7 7 6 6 6 6 6 6 6 6 6 6 6 6
10 10 10 10 10 10 10 10 10 10 9 9 9 9 9 9 9 8 8 8 8 8 8 8 7 7 7 7 7 7 7 7 7 7 7 7 7 7 7 7 7 7 6 6 6 6 6 6 6 6 6 6 6 6 6 6 6 6 6 6 6 6 6 6 6 6 6 6 6
9 9 9 9 9 9 9 9 9 9 9 9 9 9 9 8 8 8 8 8 8 8 8 7 7 7 7 7 7 7 7 7 7 7 7 7 7 7 7 7 6 6 6 6 6 6 6 6 6 6 6 6 6 6 6 6 6 6 6 5 5 5 6 6 6 6 6 6 6
9 9 9 9 9 9 9 9 9 9 9 9 9 9 8 8 8 8 8 8 8 8 7 7 7 7 7 7 7 7 7 6 6 6 6 6 6 6 6 6 6 6 6 6 6 6 6 6 6 6 6 6 6 6 6 6 5 5 5 5 5 5 5 5 5 5 5 5 5
9 9 9 9 9 9 9 9 9 9 9 8 8 8 8 8 7 8 8 8 8 7 7 7 7 7 6 6 6 6 6 6 6 6 6 6 6 6 6 6 6 6 6 6 6 6 5 5 5 5 5 5 5 5 5 5 5 5 5 5 5 5 5 5 5 5 5 5 5
8 9 9 9 9 9 9 9 8 8 8 8 8 8 8 7 7 7 8 7 7 7 7 7 6 6 6 6 6 6 6 6 6 6 6 6 6 6 6 6 6 6 5 5 5 5 5 5 5 5 5 5 5 5 5 5 5 5 5 5 5 5 5 5 5 5 5 5 5
8 8 8 8 8 8 8 8 8 8 8 8 8 7 7 7 7 7 7 7 7 7 7 7 6 6 6 6 6 6 6 5 5 5 5 6 6 6 6 5 5 5 5 5 5 5 5 5 5 5 5 5 5 5 5 5 5 5 5 4 4 4 4 5 5 5 5 5 5
8 8 8 8 8 8 8 8 8 8 7 7 7 7 7 7 7 7 7 6 7 7 7 6 6 6 6 6 5 5 5 5 5 5 5 5 5 5 5 5 5 5 5 5 5 5 5 5 5 5 5 5 4 4 4 4 4 4 4 4 4 4 4 4 5 5 5 5 5
8 8 8 8 8 8 8 7 7 7 7 7 7 7 7 7 7 7 6 6 7 7 6 6 6 6 5 5 5 5 5 5 5 5 5 5 5 5 5 5 5 5 5 5 5 5 4 4 4 4 4 4 4 4 4 4 4 4 4 4 4 4 4 4 5 5 5 5 5
8 8 8 8 8 7 7 7 7 7 7 7 7 7 7 7 7 6 6 6 6 6 6 6 5 5 5 5 5 5 5 5 5 5 5 5 5 5 5 5 5 5 5 5 4 4 4 4 4 4 4 4 4 4 4 4 4 4 4 4 4 4 4 4 5 5 5 5 5
8 8 8 8 7 7 7 7 7 7 7 7 7 6 6 6 6 6 6 6 6 6 5 5 5 5 5 5 5 5 5 5 5 5 5 5 5 5 5 5 5 5 5 4 4 4 4 4 4 4 4 4 4 4 4 4 4 4 4 4 4 4 4 4 4 5 5 5 5
7 7 7 7 7 7 7 7 7 7 7 7 6 6 6 6 6 6 6 5 5 5 5 5 5 5 5 5 5 5 5 5 5 5 5 5 5 5 5 5 5 4 4 4 4 4 4 4 4 4 4 4 4 4 4 4 4 4 4 4 4 4 4 4 4 4 4 4 4
7 7 7 7 7 6 6 6 6 6 6 6 6 6 6 6 6 5 5 5 5 5 5 5 5 5 4 4 4 4 4 4 4 4 5 5 5 5 5 4 4 4 4 4 4 4 4 4 4 4 4 4 4 3 3 3 3 3 4 4 4 4 4 4 4 4 4 4 4
7 7 6 6 6 6 6 6 6 6 5 5 5 5 5 5 5 5 5 5 5 5 5 5 4 4 4 4 4 4 4 4 4 4 4 4 4 4 4 4 4 4 4 4 4 4 4 4 4 4 4 3 3 3 3 3 3 3 3 3 4 4 4 4 4 4 4 4 4
7 6 6 6 6 6 5 5 5 5 5 5 5 5 5 5 5 5 4 4 4 4 4 4 4 4 4 4 4 4 4 4 4 4 4 4 4 4 4 4 4 4 4 4 3 3 3 3 3 3 3 3 3 3 3 3 3 3 3 3 3 3 3 3 4 4 4 4 4
6 6 6 6 5 5 5 5 5 5 5 5 5 5 4 4 4 4 4 4 4 4 4 4 4 4 4 4 4 4 4 4 4 4 4 4 4 4 4 4 3 3 3 3 3 3 3 3 3 3 3 3 3 3 3 3 3 3 3 3 3 3 3 3 3 3 3 3 3
6 6 5 5 5 5 5 5 4 4 4 4 4 4 4 4 4 4 4 4 4 4 4 4 4 4 4 4 4 4 4 4 4 4 4 3 3 3 3 3 3 3 3 3 3 3 3 3 3 3 3 3 2 2 2 2 2 2 2 3 3 3 3 3 3 3 3 3 3
5 5 5 5 5 5 4 4 4 4 4 4 4 4 4 4 4 4 4 4 4 4 4 4 4 4 4 4 3 3 3 3 3 3 3 3 3 3 3 3 3 3 3 3 3 3 3 3 3 3 2 2 2 2 2 2 2 2 2 2 2 2 2 2 2 2 2 2 2
5 5 5 5 5 4 4 4 4 4 4 4 4 4 4 4 4 4 4 4 4 4 4 4 4 3 3 3 3 3 3 3 3 3 3 3 3 3 3 3 3 3 3 3 3 3 3 3 2 2 2 2 2 2 2 2 2 2 2 2 2 2 2 2 2 2 2 2 2
5 5 5 4 4 4 4 4 4 4 4 4 4 4 4 4 4 4 4 4 4 4 4 3 3 3 3 3 3 3 3 3 3 3 3 3 3 3 3 3 3 3 3 3 3 3 3 2 2 2 2 1 1 1 1 1 1 1 1 1 1 1 2 2 2 2 2 2 2
5 4 4 4 4 4 4 4 4 4 4 4 4 4 4 4 4 4 4 3 3 3 3 3 3 3 3 3 3 3 3 3 3 3 3 3 3 3 3 3 3 3 3 3 3 2 2 2 2 1 1 1 1 1 1 1 1 1 1 1 1 1 1 1 1 2 2 2 2
4 4 4 4 4 4 4 4 4 4 4 4 4 4 4 4 3 3 3 3 3 3 3 3 3 3 3 3 3 3 3 3 3 3 3 3 3 3 3 3 3 3 3 2 2 2 2 2 2 1 1 1 1 1 1 1 1 1 1 1 1 1 1 1 1 1 2 2 2
4 4 4 4 4 4 4 4 4 4 4 4 4 3 3 3 3 3 3 3 3 3 3 3 3 3 3 3 3 3 3 3 3 3 3 3 3 3 3 2 2 2 2 2 2 2 2 2 2 1 1 1 1 0 0 0 0 0 0 0 0 1 1 1 1 1 2 2 2
4 4 4 4 4 4 4 4 4 4 4 4 3 3 3 3 3 3 3 3 3 3 3 3 3 3 3 3 3 3 3 3 3 3 3 3 3 2 2 2 2 2 2 2 2 2 2 2 1 1 1 1 0 0 0 -0 -0 -0 0 0 0 0 1 1 1 1 1 2 2
4 4 4 4 4 4 4 4 4 4 4 3 3 3 3 3 3 3 3 3 3 3 3 3 3 3 3 3 3 3 3 3 3 3 3 2 2 2 2 2 2 2 2 2 2 2 2 1 1 1 1 0 0 -0 -0 -0 -0 -0 -0 0 0 0 1 1 1 1 1 1 1
4 4 4 4 4 4 4 4 4 4 3 3 3 3 3 3 3 3 3 3 3 3 3 3 3 3 3 3 3 3 3 3 3 3 2 2 2 2 2 2 2 2 2 2 2 1 1 1 1 1 1 0 -0 -0 -0 -1 -0 -0 -0 -0 0 0 0 1 1 1 1 1 1
4 4 4 4 4 4 4 4 4 3 3 3 3 3 3 3 3 3 3 3 3 3 3 2 2 2 2 3 3 3 3 3 3 3 2 2 2 2 2 2 2 2 2 2 1 1 1 1 1 1 0 0 -0 -1 -1 -1 -1 -1 -1 -0 -0 0 0 0 0 0 0 0 0
4 4 4 4 4 4 4 4 3 3 3 3 3 3 3 3 3 3 3 3 2 2 2 2 2 2 2 3 3 3 3 3 2 2 2 2 2 2 2 2 2 2 1 1 1 1 1 1 1 0 0 -0 -0 -1 -1 -1 -1 -1 -1 -1 -0 -0 0 0 0 0 0 0 0
4 4 4 4 4 4 4 3 3 3 3 3 3 3 3 3 3 3 2 2 2 2 2 2 2 2 2 2 3 3 2 2 2 2 2 2 2 2 2 1 1 1 1 1 1 1 1 1 0 0 -0 -0 -1 -1 -1 -1 -1 -1 -1 -1 -0 -0 -0 -0 -0 -0 -0 -0 -0
3 3 3 3 3 3 3 3 3 3 3 3 3 3 3 3 2 2 2 2 2 2 2 2 2 2 2 2 2 2 2 2 2 2 2 2 2 2 1 1 1 1 1 1 1 1 1 0 0 -0 -0 -1 -1 -1 -1 -1 -1 -1 -1 -1 -1 -0 -0 -0 -0 -0 -0 -0 -0
3 3 3 3 3 3 3 3 3 3 3 3 3 3 3 2 2 2 2 2 2 2 2 2 2 2 2 2 2 2 2 2 2 2 2 2 1 1 1 1 1 1 1 1 1 1 0 0 -0 -0 -1 -1 -1 -1 -1 -1 -1 -1 -1 -1 -1 -1 -1 -1 -1 -1 -0 -0 -0
3 3 3 3 3 3 3 3 3 3 3 3 3 2 2 2 2 2 2 2 2 2 2 2 2 2 2 2 2 2 2 2 2 2 2 1 1 1 1 1 1 1 1 1 1 0 0 -0 -0 -1 -1 -1 -1 -1 -1 -1 -1 -1 -1 -1 -1 -1 -1 -1 -1 -1 -1 -0 -0
3 3 3 3 3 3 3 3 3 3 3 2 2 2 2 2 2 2 2 2 2 2 2 2 2 2 2 2 2 2 2 2 1 1 1 1 1 1 1 1 1 1 1 0 0 -0 -0 -0 -1 -1 -1 -1 -1 -1 -1 -1 -1 -1 -1 -1 -1 -1 -1 -1 -1 -1 -1 -0 -0
3 3 3 3 3 3 3 2 2 2 2 2 2 2 2 2 2 2 2 2 2 2 2 2 2 2 2 2 2 2 1 1 1 1 1 1 1 1 1 1 1 1 0 0 -0 -0 -0 -0 -1 -1 -1 -1 -1 -1 -1 -1 -1 -1 -1 -1 -1 -1 -1 -1 -1 -1 -0 -0 -0
3 3 2 2 2 2 2 2 2 2 2 2 2 2 1 1 1 2 2 2 2 2 2 2 2 2 2 1 1 1 1 1 1 1 1 1 1 1 1 1 0 0 0 -0 -0 -0 -0 -0 -1 -1 -1 -1 -1 -1 -1 -1 -1 -1 -1 -1 -1 -1 -1 -1 -1 -1 -0 -0 -1
2 2 2 2 2 2 2 2 2 2 2 2 1 1 1 1 1 1 1 1 2 2 2 2 2 1 1 1 1 1 1 1 1 1 1 1 1 1 1 0 0 0 -0 -0 -0 -0 -0 -0 -1 -1 -1 -1 -1 -1 -1 -2 -2 -2 -2 -1 -1 -1 -1 -1 -1 -1 -1 -1 -1
2 2 2 2 2 2 2 2 2 2 1 1 1 1 1 1 1 1 1 1 1 1 1 1 1 1 1 1 1 1 1 1 1 1 1 1 1 1 0 0 0 0 -0 -0 -0 -0 -0 -0 -1 -1 -1 -1 -1 -1 -2 -2 -2 -2 -2 -1 -1 -1 -1 -1 -1 -1 -1 -1 -1
2 2 2 2 2 2 2 2 1 1 1 1 1 1 1 1 1 1 1 1 1 1 1 1 1 1 1 1 1 1 1 1 1 1 1 1 1 1 0 0 0 0 -0 -0 -0 -0 -0 -0 -1 -1 -1 -1 -1 -1 -2 -2 -2 -2 -1 -1 -1 -1 -1 -1 -1 -1 -1 -1 -1
Height
780 780 781 781 781 782 782 782 782 783 783 783 783 783 783 783 783 783 784 783 783 783 783 783 783 782 782 782 782 781 781 781 780 780 779 779 778 778 778 777 776 776 775 774 773 773 772 771 770 769 768 767 766 765 764 763 762 761 759 759 757 756 755 754 753 751 750 749 748
781 781 781 781 781 782 782 782 782 783 783 783 783 783 783 783 783 783 784 783 783 783 783 783 782 782 782 782 781 781 781 780 780 779 779 779 778 778 777 777 776 775 775 774 773 772 771 770 769 768 767 766 765 764 763 762 761 760 759 758 757 755 754 753 751 750 749 748 747
781 782 782 782 782 782 782 782 783 783 783 783 783 783 783 783 783 783 783 783 783 783 783 783 782 782 781 781 781 781 781 780 780 779 779 778 778 778 777 776 776 775 774 773 773 772 771 770 769 768 767 765 764 763 762 761 760 759 758 757 756 754 753 752 750 749 748 747 746
782 782 782 782 782 782 782 783 783 783 783 783 783 783 783 783 783 783 783 783 783 783 783 782 782 781 781 781 781 781 781 780 780 779 778 778 778 777 776 776 775 774 773 773 772 771 770 769 768 767 766 765 764 763 761 760 759 759 757 756 755 754 753 751 750 749 747 746 745
782 782 782 783 783 783 783 783 783 783 783 783 783 783 783 783 783 783 783 783 783 783 783 782 782 781 781 780 780 780 780 780 779 779 778 778 777 776 776 775 774 774 773 772 771 770 769 768 768 766 765 764 763 762 761 760 759 758 756 755 754 753 752 750 749 748 746 745 744
783 783 783 783 783 783 783 783 783 783 783 783 783 784 784 783 783 783 783 783 783 783 782 782 782 781 781 780 780 780 780 779 779 778 778 777 776 776 775 774 774 773 772 771 770 770 769 768 767 766 764 764 762 761 760 759 758 757 755 754 753 752 751 749 748 747 745 744 742
783 783 783 783 783 783 783 783 783 783 783 783 784 784 784 783 783 783 783 783 783 783 782 782 781 781 781 780 780 779 779 779 778 778 777 777 776 775 774 774 773 772 772 771 770 769 768 767 766 765 764 763 761 760 759 758 757 756 754 753 752 751 750 748 747 745 744 742 741
783 783 783 783 783 783 783 783 783 783 783 784 784 784 784 783 783 783 783 783 783 782 782 781 781 781 780 780 780 779 779 778 778 777 777 776 775 775 774 773 772 772 771 770 769 768 767 766 765 764 763 762 761 759 758 757 756 755 754 752 751 749 749 747 745 744 743 741 739
783 783 783 783 783 783 783 783 783 783 784 784 784 784 784 783 783 783 783 783 782 782 781 781 781 780 780 780 779 779 778 778 777 777 776 775 775 774 773 773 772 771 770 769 768 768 767 766 764 764 762 761 760 759 757 756 755 754 752 751 749 748 747 746 744 743 741 740 738
784 784 784 783 783 783 783 783 783 783 784 784 784 784 783 783 783 783 783 782 782 781 781 781 780 780 780 779 779 778 778 778 777 776 776 775 774 773 773 772 771 770 769 768 768 767 766 765 764 763 761 760 759 758 756 755 754 753 751 750 748 747 745 744 743 741 740 738 737
784 784 784 784 784 783 783 784 783 783 784 784 783 783 783 783 783 783 783 782 782 782 781 780 780 779 779 779 778 778 778 777 776 776 775 774 774 773 772 771 770 769 769 768 767 766 765 764 763 762 760 759 758 757 755 754 753 751 750 748 747 745 744 742 741 740 738 737 735
784 784 784 784 784 784 784 784 784 784 784 784 783 783 783 783 783 783 783 782 782 781 781 780 780 779 779 778 778 778 777 776 776 775 775 774 773 772 772 771 770 769 768 767 766 765 764 763 762 760 759 758 757 756 754 753 751 750 748 747 745 744 742 740 739 738 737 735 734
784 784 784 784 784 784 784 784 784 784 784 784 784 783 783 783 783 783 782 782 782 781 780 780 779 779 778 778 778 777 777 776 775 775 774 773 773 772 771 770 769 768 767 766 765 764 763 762 761 759 758 757 756 754 753 752 750 749 747 745 744 742 741 739 738 736 735 734 732
784 784 784 784 784 784 784 784 784 784 784 784 784 784 783 783 783 783 782 782 781 781 780 779 779 779 778 778 777 777 776 775 775 774 773 773 772 771 770 769 768 768 767 765 764 764 763 761 760 759 757 756 754 753 752 751 749 748 746 744 742 741 739 738 736 735 733 732 730
784 784 784 784 784 784 784 784 784 784 784 784 784 784 783 783 783 782 782 781 781 780 780 779 779 778 778 777 777 776 776 775 774 773 773 772 771 770 770 768 768 767 766 764 764 763 761 760 759 757 756 754 753 752 750 749 748 746 744 743 741 739 738 736 734 733 732 730 728
785 785 785 784 784 784 784 784 784 784 784 784 784 783 783 783 783 782 781 781 780 780 779 779 778 778 777 777 776 776 775 774 774 773 772 771 771 770 769 768 767 766 765 764 763 761 760 759 758 756 755 754 752 750 749 748 746 745 743 741 740 738 736 735 733 732 730 729 727
785 785 785 785 785 785 785 784 784 784 784 784 784 783 783 783 782 782 781 781 780 780 779 778 778 778 777 776 776 775 775 774 773 773 772 771 770 769 768 767 766 765 764 763 761 760 759 758 757 755 754 753 751 749 748 746 745 743 741 740 738 737 735 733 732 730 729 727 725
785 785 785 785 785 785 785 784 784 784 784 784 783 783 783 783 782 781 781 780 780 779 779 778 778 777 777 776 775 775 774 773 773 772 771 770 769 768 767 766 765 764 763 762 760 759 758 756 755 754 753 751 750 748 747 745 743 742 740 738 737 735 734 732 730 729 727 725 724
785 785 785 785 785 785 784 784 784 784 784 783 783 783 783 782 782 781 780 780 779 779 778 778 777 777 776 775 775 774 773 773 772 771 770 769 768 767 766 765 764 763 762 760 759 758 757 755 754 753 751 750 749 747 745 744 742 740 739 737 735 734 732 730 729 727 726 724 722
785 785 785 785 785 784 784 784 784 784 783 783 783 783 782 782 781 781 780 779 779 778 778 777 777 776 775 775 774 773 773 772 771 770 769 768 767 766 765 764 763 762 760 759 758 757 755 754 753 752 750 749 747 746 744 742 740 739 737 735 734 732 730 729 727 726 724 723 721
785 785 785 785 784 784 784 784 784 783 783 783 783 783 782 781 781 780 780 779 778 778 778 777 776 776 775 774 773 773 772 771 770 769 768 767 766 765 764 763 762 760 759 758 757 756 754 753 752 751 749 748 746 744 743 741 739 737 735 734 732 730 729 727 726 724 723 721 719
785 785 784 784 784 784 784 784 783 783 783 783 783 782 782 781 780 780 779 779 778 778 777 777 776 775 774 773 773 772 771 770 769 768 767 766 765 764 763 762 761 759 758 757 756 754 753 752 751 749 748 746 744 743 741 739 737 735 734 732 730 729 727 726 724 723 721 719 718
784 784 784 784 784 784 784 784 783 783 783 783 782 782 781 780 780 779 779 778 778 777 777 776 775 774 773 773 772 771 770 769 768 767 766 765 764 763 762 761 760 758 757 756 754 754 752 751 749 748 747 745 743 741 740 738 736 734 732 730 729 727 725 724 722 721 719 718 716
784 784 784 784 784 784 784 783 783 783 783 782 782 781 781 780 779 779 778 778 777 777 776 775 774 774 773 772 771 770 769 768 767 766 765 764 763 762 761 760 759 757 756 755 754 753 751 750 749 747 745 744 742 740 739 737 735 733 731 729 727 725 724 722 721 719 718 716 714
784 784 784 784 784 783 783 783 783 783 782 782 781 781 780 779 779 778 778 777 777 776 775 775 774 773 772 771 770 769 768 768 766 765 764 763 762 761 760 759 757 756 755 754 752 751 750 749 748 746 744 743 741 739 737 735 734 732 730 728 726 724 722 720 719 718 716 714 713
784 784 784 784 783 783 783 783 782 782 782 781 780 780 779 779 778 778 777 777 776 776 775 774 773 772 771 770 769 768 768 767 766 764 763 762 761 760 759 758 756 755 753 752 751 750 749 748 747 746 744 742 740 738 736 734 732 731 729 727 725 723 721 719 717 715 714 713 712
784 784 784 783 783 783 783 782 782 782 781 780 780 779 779 778 778 778 777 776 776 775 774 773 773 772 771 770 768 768 767 766 765 764 762 761 760 759 757 756 755 754 752 751 750 749 748 746 745 744 743 741 739 737 735 733 731 729 728 726 724 722 720 718 716 714 713 711 710
783 783 783 783 783 783 782 782 782 781 780 780 779 779 778 778 778 777 777 776 775 774 773 773 772 771 770 769 768 767 766 765 764 762 761 760 759 757 756 755 754 752 751 750 749 747 746 745 744 743 742 740 739 736 734 732 730 728 726 724 723 721 719 717 715 713 712 710 709
783 783 783 783 782 782 782 781 781 780 780 779 778 778 778 778 777 777 776 775 774 774 773 772 771 770 769 768 767 766 765 764 762 761 760 759 757 756 755 754 752 751 749 748 747 746 745 744 742 741 740 739 738 735 733 731 729 727 725 723 722 720 718 716 714 713 711 710 708
783 783 782 782 782 782 781 781 781 780 779 778 778 778 778 777 777 776 775 775 774 773 772 772 770 769 768 767 766 765 764 762 761 760 759 757 756 755 754 752 751 749 748 747 746 744 743 742 741 740 739 738 736 734 733 730 729 726 724 722 721 719 717 715 714 712 711 709 708
782 782 782 782 781 781 781 781 780 779 779 778 778 778 777 777 776 776 775 774 773 772 772 771 770 768 768 766 765 764 763 761 760 759 758 756 754 753 752 751 749 748 747 745 744 743 742 741 740 739 737 736 735 733 731 729 728 725 724 721 719 718 716 714 713 711 710 709 707
782 781 781 781 781 781 780 780 779 779 778 778 778 777 777 776 776 775 774 773 773 771 770 769 768 767 766 765 764 763 761 760 759 758 756 755 754 752 750 749 748 746 745 744 743 742 741 739 739 737 736 735 734 732 730 728 726 724 722 720 719 717 715 714 712 710 709 708 706
781 781 781 780 780 780 780 779 779 778 778 778 777 777 776 776 775 774 773 773 772 771 770 768 768 766 765 764 763 761 760 759 758 756 755 754 752 751 749 748 746 745 744 743 742 741 739 738 737 736 734 733 732 730 729 727 725 723 721 719 717 716 714 713 711 710 708 707 705
781 780 780 780 780 780 779 779 778 778 778 777 777 776 776 775 774 773 773 772 771 770 769 768 767 765 764 763 762 760 759 757 756 755 754 752 751 749 748 746 745 744 743 742 741 739 738 737 736 734 733 732 730 729 727 725 724 722 720 718 716 715 714 712 710 709 707 705 704
780 780 780 780 779 779 779 778 778 778 777 777 776 775 775 774 773 773 772 771 770 769 768 767 766 764 763 762 761 759 758 756 755 754 752 751 749 748 746 745 744 743 742 741 739 738 737 736 734 733 732 731 729 728 726 724 722 720 719 717 715 714 712 711 709 707 706 704 702
780 780 779 779 779 778 778 778 777 777 777 776 775 775 774 773 773 772 771 770 769 768 767 765 764 763 762 761 759 758 757 755 754 752 751 750 748 747 745 744 742 741 740 739 738 737 736 734 733 732 731 729 728 726 724 723 721 719 717 715 714 712 711 709 708 706 704 703 701
779 779 779 778 778 778 778 777 777 776 776 775 775 774 773 773 772 771 770 769 768 767 765 764 763 762 761 759 758 757 756 754 753 751 750 749 747 746 744 742 741 740 739 738 737 736 735 734 732 731 730 728 727 725 723 721 720 718 716 714 713 711 709 708 706 704 703 701 700
779 778 778 778 778 778 777 777 776 776 775 775 774 773 773 772 771 770 769 768 767 766 764 763 762 761 759 758 757 756 754 753 752 750 749 747 746 745 743 741 739 739 738 737 735 734 733 732 731 730 729 727 726 724 722 720 719 717 715 713 711 709 708 706 704 703 701 699 698
778 778 778 778 777 777 777 776 776 775 775 774 773 773 772 771 770 769 768 767 766 765 764 762 761 760 759 757 756 754 753 752 751 749 748 746 745 744 742 740 738 737 736 735 734 733 732 731 730 729 728 726 725 723 721 719 718 716 714 712 710 708 706 705 703 701 699 698 696
778 778 777 777 777 777 776 776 775 775 774 773 773 772 771 770 769 768 767 766 765 764 763 761 760 759 758 756 755 753 751 750 749 748 747 745 744 742 741 739 737 736 735 734 733 732 731 730 729 728 727 725 724 722 721 719 717 715 713 711 709 707 704 703 701 700 698 696 694
777 777 777 777 776 776 776 775 774 774 773 773 772 771 770 769 768 767 766 765 764 763 762 760 759 758 757 755 754 752 750 749 748 747 745 744 742 741 740 738 736 735 734 733 732 730 729 729 728 727 726 724 723 722 720 718 716 714 712 710 708 706 704 701 699 698 697 695 693
Wind_Speed
8 8 8 7 7 7 7 8 8 8 7 6 6 6 6 6 5 5 5 5 5 5 5 5 6 6 7 8 8 9 9 9 10 10 10 10 10 10 10 11 11 11 12 12 12 12 12 13 13 13 13 13 13 13 13 13 13 14 15 15 16 16 17 17 18 18 18 19 19
8 8 8 7 7 7 7 7 7 7 7 7 7 6 6 6 5 5 5 5 5 5 5 5 6 6 7 8 9 9 9 10 10 10 10 10 10 10 10 11 11 12 12 12 12 12 13 13 14 14 13 13 13 13 14 13 14 14 15 16 16 16 17 17 18 18 18 19 19
7 7 7 6 6 6 6 6 6 6 6 7 7 7 6 6 5 5 4 4 4 4 5 5 6 7 8 8 9 9 9 10 10 10 10 10 10 10 11 11 12 12 12 12 13 13 13 14 14 14 14 13 14 14 14 14 14 15 16 16 16 17 17 17 18 18 18 18 19
7 7 7 7 7 7 7 6 6 6 6 6 6 6 6 6 5 5 4 4 4 4 5 6 7 8 9 9 9 9 10 10 10 10 10 10 11 11 11 12 12 12 13 13 13 13 14 14 14 14 14 14 14 14 14 14 15 15 16 16 17 17 17 18 18 18 19 19 19
7 7 7 7 7 8 7 7 7 6 7 6 6 5 5 5 5 5 4 4 4 5 6 7 8 8 8 9 9 9 10 10 10 10 10 11 11 11 12 12 12 13 13 13 13 14 14 15 14 14 14 14 14 14 14 15 16 16 17 17 17 17 18 18 18 19 19 19 20
7 7 7 8 8 8 8 8 7 7 6 6 5 5 4 5 5 5 4 4 4 5 6 8 8 8 8 9 9 9 10 10 10 10 11 11 11 12 12 13 13 13 13 14 14 14 15 15 14 14 14 14 14 14 15 15 16 17 17 18 18 18 18 19 19 19 19 20 21
7 7 7 7 8 8 8 8 7 7 6 6 5 5 5 5 5 5 5 4 5 6 7 8 8 8 8 9 9 10 10 10 10 11 11 11 12 12 13 13 13 14 14 14 14 15 15 15 15 14 14 14 15 15 15 16 16 17 18 19 19 19 19 19 20 20 20 21 22
7 7 7 7 7 8 8 8 7 6 5 5 5 5 5 5 6 5 5 5 5 6 7 8 8 9 9 9 9 10 10 11 11 11 11 12 12 13 13 13 14 14 14 15 15 15 15 15 15 15 15 15 15 15 16 17 18 19 20 20 20 20 20 20 20 21 22 23 24
6 6 7 7 7 7 8 7 7 6 5 5 5 5 5 6 6 6 5 6 6 7 7 7 8 10 10 10 10 10 10 11 11 12 12 12 13 13 14 14 14 15 15 15 15 15 16 15 15 15 15 15 16 17 18 18 19 20 20 21 21 21 21 21 22 23 23 24 24
5 5 6 6 7 7 7 7 6 6 5 4 5 5 5 5 5 5 6 7 7 7 6 7 9 10 10 10 10 10 10 11 11 12 13 13 13 14 14 14 14 15 16 16 16 16 16 16 16 16 16 17 18 19 19 19 20 21 21 21 21 22 23 23 23 24 24 24 25
4 5 5 5 6 6 6 5 5 5 5 5 5 5 5 5 5 6 7 8 7 7 7 8 10 10 10 10 11 10 10 11 12 12 13 14 14 14 14 15 15 16 16 16 16 16 16 16 16 17 18 18 19 19 20 20 20 21 22 22 23 24 24 24 24 24 24 25 25
4 5 5 5 6 6 5 4 4 5 5 5 5 5 5 5 5 6 7 7 7 7 8 9 10 10 10 10 11 11 11 12 12 13 14 14 14 15 15 15 16 16 17 17 17 16 16 17 18 19 19 20 19 19 20 21 21 22 23 24 24 24 25 25 25 25 25 25 26
5 5 5 6 6 6 5 4 4 4 4 4 5 6 5 5 6 6 7 7 8 8 9 10 10 10 10 10 11 12 12 12 13 13 14 14 15 15 16 16 16 17 17 17 17 17 17 18 19 20 20 21 20 20 21 21 22 23 24 24 25 25 25 25 26 26 26 26 27
5 5 5 6 6 5 5 4 4 4 4 4 5 6 6 6 6 6 7 8 9 9 9 10 10 10 10 11 11 12 12 13 13 14 15 15 15 16 16 16 17 17 17 17 17 18 18 19 20 20 21 21 21 21 22 22 23 23 24 25 25 25 26 26 26 27 27 27 28
5 5 5 6 5 5 5 4 4 4 4 5 5 6 6 6 6 7 8 9 10 10 10 10 10 10 11 11 12 12 13 13 14 14 15 15 16 16 16 17 18 18 18 18 18 19 19 20 20 21 21 21 22 22 22 23 23 24 24 25 25 26 27 27 27 27 27 28 28
4 5 5 5 5 5 4 4 4 4 5 5 6 6 6 6 7 8 9 10 10 10 10 10 11 12 12 12 12 12 13 13 14 14 15 16 16 17 17 18 18 19 19 19 20 20 20 20 20 21 21 21 22 22 23 23 24 25 25 25 26 26 27 27 27 28 28 28 28
3 4 5 5 4 4 4 4 4 4 5 6 6 7 7 7 8 8 9 10 10 11 11 11 12 12 12 12 12 12 13 13 14 14 15 16 16 17 18 18 19 19 19 20 20 21 21 21 21 21 21 22 22 23 23 24 25 25 25 26 26 27 27 27 27 28 28 28 29
3 3 4 4 4 4 4 5 5 5 6 6 7 7 7 8 9 9 10 10 10 11 12 12 13 13 13 13 13 13 13 14 14 15 16 16 17 18 18 19 19 20 20 20 21 21 22 22 22 21 21 22 22 23 24 25 25 25 26 26 26 27 27 27 27 27 28 28 29
3 3 3 4 4 4 5 5 6 6 6 7 7 7 8 9 9 10 10 10 11 11 12 13 13 13 13 13 13 13 14 14 15 16 16 17 17 18 19 19 20 20 20 21 21 22 22 22 22 22 22 22 23 24 24 25 25 26 26 26 27 27 27 27 27 28 28 28 29
2 3 3 4 5 5 5 6 6 6 6 7 7 8 8 9 9 10 10 11 11 12 12 13 13 13 13 14 14 14 15 15 15 16 17 17 18 18 19 20 20 20 21 21 21 22 22 22 22 22 22 22 23 24 25 25 26 26 26 26 27 27 27 27 28 28 28 28 28
2 3 4 5 5 6 6 6 6 6 6 7 7 8 9 9 9 10 10 11 12 12 12 13 13 14 14 15 15 15 15 15 16 16 17 17 18 19 19 20 20 21 21 21 21 22 22 21 21 21 22 23 24 25 25 25 26 26 26 26 27 27 28 28 28 28 28 28 28
3 4 5 5 6 6 6 6 6 6 7 7 7 8 9 9 9 10 11 11 12 12 12 13 13 14 15 15 16 16 16 16 16 17 17 18 19 19 19 20 20 21 21 21 21 21 21 21 21 21 22 23 24 25 25 25 26 27 27 27 27 28 28 28 28 28 28 28 27
3 4 5 5 6 5 5 6 6 6 7 7 7 8 9 9 10 10 11 11 12 12 12 13 14 14 15 16 16 17 17 17 17 17 18 18 19 20 20 20 21 21 21 21 21 20 20 20 21 21 22 23 24 25 25 26 26 27 27 27 28 28 28 28 28 28 28 27 27
4 4 5 5 5 5 5 5 6 6 7 7 8 8 9 10 10 11 11 12 12 12 13 14 14 15 16 16 16 16 17 17 18 18 19 19 19 20 20 20 20 21 21 21 20 20 20 20 21 22 23 24 24 25 26 26 26 27 27 28 28 29 29 28 28 27 27 26 26
4 4 4 4 4 5 5 5 6 6 7 7 8 9 9 10 11 12 12 12 13 13 14 15 15 16 16 16 16 16 16 17 18 19 19 20 20 20 20 20 20 20 20 20 20 20 21 22 22 23 24 25 25 26 26 26 26 26 27 27 28 28 28 28 27 27 26 25 25
4 3 4 4 4 5 5 5 6 6 7 7 8 9 10 11 11 12 12 13 13 14 15 15 15 16 16 16 16 16 17 17 18 19 19 20 21 21 20 20 20 20 20 20 21 22 23 23 24 25 25 25 26 26 26 26 26 26 27 27 27 27 27 27 27 26 25 24 24
3 3 4 4 5 5 5 5 6 6 7 8 8 9 10 11 12 12 12 13 14 15 15 15 15 15 15 15 16 16 17 18 18 19 20 20 21 21 21 21 21 21 21 21 22 23 24 25 25 25 25 25 26 26 26 27 27 27 27 27 26 26 26 26 26 26 25 25 24
3 3 4 4 5 5 5 6 6 6 7 8 9 10 11 11 12 12 13 13 14 15 15 15 15 15 15 15 16 17 18 19 19 19 20 20 21 21 22 22 22 22 22 23 24 25 25 25 25 25 25 25 26 26 26 26 27 26 26 26 25 25 25 25 25 25 25 25 25
3 4 4 5 5 5 5 6 6 7 8 8 9 10 11 11 12 12 13 14 14 15 15 15 15 15 15 16 17 18 19 19 19 20 20 21 21 22 22 22 23 23 24 24 25 25 25 25 25 25 25 26 26 25 25 25 25 26 25 25 24 24 25 25 25 25 25 25 25
3 4 4 5 5 5 6 6 7 7 8 9 10 10 11 12 12 13 13 14 14 15 15 15 16 16 17 18 19 19 19 20 20 20 21 22 22 23 23 23 24 24 24 25 25 25 25 25 25 25 26 26 26 26 25 25 25 25 25 25 24 24 25 25 25 25 25 25 26
3 4 4 5 5 5 6 6 7 8 9 9 10 11 11 12 13 13 14 14 15 15 16 16 17 17 18 19 19 19 20 21 21 21 21 22 23 23 24 24 24 25 25 25 24 24 25 25 25 26 26 26 26 25 25 25 25 25 24 24 24 25 25 25 25 25 25 25 26
3 4 4 5 5 6 6 7 8 8 9 10 10 11 12 12 13 14 14 15 15 16 16 17 17 18 19 19 20 20 21 21 22 22 22 22 23 24 25 25 25 25 24 24 24 25 25 25 26 26 26 26 26 25 25 25 24 24 24 24 24 24 24 24 24 25 25 26 26
4 4 4 5 5 6 7 7 8 9 10 10 11 11 12 13 13 14 15 15 15 16 16 17 18 18 19 20 20 21 21 22 22 22 23 23 24 25 25 25 25 24 24 24 24 25 26 26 26 26 26 26 26 25 24 24 23 23 23 23 24 24 24 25 25 25 26 26 26
4 4 5 5 6 6 7 8 9 10 10 11 11 12 12 13 14 15 15 15 15 16 16 17 17 18 19 20 20 21 22 22 22 23 24 24 25 25 25 25 25 24 24 25 25 26 26 26 25 25 25 25 25 24 24 23 23 23 23 23 24 24 24 25 25 25 26 26 26
4 4 5 5 6 7 8 9 9 10 11 12 12 12 13 14 14 15 15 16 16 16 17 17 18 19 19 20 21 21 22 23 23 24 24 25 25 25 26 26 25 25 25 25 25 25 25 25 25 25 25 25 24 23 23 23 23 23 23 24 24 24 24 25 25 25 25 25 25
4 5 5 6 7 8 9 9 10 11 11 12 13 13 14 14 15 15 16 16 16 17 17 18 19 19 20 21 21 22 22 23 24 25 25 25 25 26 26 26 25 25 25 25 25 25 25 24 24 24 24 24 23 23 22 22 22 23 23 24 24 24 24 25 25 24 24 24 24
4 5 6 7 7 8 9 10 11 11 12 12 13 14 14 15 15 15 16 16 16 17 18 19 19 20 21 22 22 22 23 23 24 25 25 25 25 26 26 26 26 25 25 25 25 25 24 24 23 23 23 23 23 22 22 22 22 22 23 23 24 24 24 24 24 24 24 24 24
4 5 6 7 8 9 10 10 11 11 12 13 13 14 14 15 15 15 16 16 17 18 19 20 20 21 21 22 23 23 24 24 24 25 25 25 25 25 26 26 26 26 25 25 24 24 23 23 23 22 22 22 22 22 22 22 22 22 23 23 23 24 23 23 23 24 24 24 25
4 6 7 7 8 9 10 10 11 11 12 13 14 14 14 15 15 15 16 16 17 18 19 20 21 21 22 23 23 24 24 24 24 25 25 25 25 25 25 26 26 26 25 24 24 23 23 22 22 22 22 22 21 21 21 21 22 22 22 23 23 23 23 23 24 24 24 25 25
5 6 7 8 9 9 10 11 11 12 12 13 14 14 15 15 15 16 16 16 17 18 19 20 21 22 23 23 24 25 25 25 25 25 25 25 25 25 25 25 26 25 25 24 23 23 22 21 21 21 22 21 21 20 20 21 22 22 22 22 23 23 24 24 24 24 24 24 25
6 6 7 8 9 10 10 11 12 12 13 13 14 14 15 15 16 16 17 17 18 19 20 20 21 22 23 24 24 25 26 26 26 25 25 25 25 25 24 24 25 25 24 23 22 22 21 21 21 21 21 21 21 20 20 21 21 22 23 23 23 24 24 25 25 24 24 24 25
Wind_Direction
93 94 96 95 93 90 85 80 75 71 66 60 54 48 44 41 37 32 25 20 15 10 6 5 4 360 355 350 346 342 340 338 337 337 335 333 331 329 329 328 328 327 326 325 325 324 323 323 321 318 314 310 307 307 307 307 309 309 310 310 310 310 310 309 308 307 306 306 305
91 92 92 91 90 87 83 77 70 64 60 57 54 49 43 40 35 29 22 16 11 5 2 2 358 354 350 346 343 339 337 334 333 333 332 330 328 327 326 326 325 325 324 324 323 323 322 321 319 316 312 308 306 306 307 308 309 309 310 310 310 310 309 308 307 306 306 306 305
86 85 84 83 83 83 81 76 70 64 58 53 50 46 41 36 32 25 18 11 6 3 1 357 351 348 346 343 340 337 333 331 330 329 328 326 326 325 325 325 324 324 324 323 322 321 319 318 316 313 309 307 306 305 306 308 309 310 310 311 310 310 308 307 306 306 306 305 305
81 79 78 77 76 76 75 72 67 61 54 50 46 41 35 30 26 21 12 5 2 1 357 349 345 344 343 341 337 333 330 328 327 326 325 324 323 324 324 324 324 323 323 322 320 319 318 317 314 311 307 305 304 304 305 307 309 310 309 309 309 308 306 305 305 305 305 304 303
77 77 77 74 73 72 71 68 63 56 51 47 44 38 29 23 20 14 7 1 359 354 348 344 343 343 341 338 334 331 328 327 326 325 323 322 322 322 323 323 323 323 322 321 319 318 317 316 313 309 306 304 303 303 304 306 308 309 308 308 307 306 304 303 303 303 302 301 301
75 76 76 75 71 68 66 63 58 52 47 45 42 35 26 18 14 8 2 356 353 347 343 341 343 341 338 335 332 330 328 326 325 324 322 322 321 322 322 322 322 321 321 320 319 318 317 316 313 309 306 304 303 303 304 306 307 307 307 306 305 304 303 302 301 300 299 299 298
77 76 74 72 68 64 61 58 54 49 44 40 35 30 20 12 9 4 357 352 348 343 340 340 340 339 336 334 331 329 327 325 324 323 322 321 321 321 320 320 320 320 320 319 318 317 316 315 312 308 306 305 304 304 305 306 306 306 305 303 303 302 301 300 299 298 297 296 296
78 75 71 66 62 59 56 54 53 48 40 31 25 19 12 4 4 359 354 351 345 340 338 338 337 335 334 332 330 327 326 324 323 322 321 320 319 319 319 319 319 318 318 318 317 316 315 313 310 307 305 305 303 304 304 305 305 303 302 302 301 301 300 298 298 297 296 295 295
74 68 62 56 51 48 47 46 47 45 37 26 17 10 2 357 358 357 350 344 339 339 339 335 333 332 332 330 328 326 325 323 322 321 320 319 318 317 317 317 317 317 317 316 315 314 313 311 308 305 304 303 303 303 303 304 303 302 301 300 300 299 299 298 297 296 296 295 295
74 66 57 50 44 42 41 37 35 33 30 19 10 2 354 351 353 350 343 337 338 339 337 331 330 330 330 328 327 325 324 323 321 320 318 317 316 315 315 315 314 314 314 314 313 312 311 309 306 304 303 302 302 302 302 302 302 302 301 300 299 299 298 297 297 296 296 295 295
74 64 55 49 41 39 39 32 23 20 18 8 2 357 350 346 346 341 337 338 337 336 332 329 329 329 329 328 326 324 323 321 319 318 316 315 314 313 312 312 312 312 312 312 311 311 309 307 304 303 302 302 302 302 302 303 302 302 301 300 299 298 298 298 297 297 296 296 295
62 51 43 37 33 33 32 25 15 11 8 359 355 351 347 340 339 337 337 337 335 332 330 329 330 330 328 326 325 323 321 319 317 316 314 313 311 311 310 310 310 309 309 309 309 308 307 305 303 303 302 302 302 302 302 303 303 302 301 300 299 299 298 298 299 298 297 297 296
49 40 33 28 25 24 21 16 9 5 359 354 349 345 342 336 335 336 337 336 334 332 330 330 331 330 327 324 322 321 319 317 315 314 312 311 310 309 309 308 308 308 308 308 307 306 305 304 303 302 302 303 302 302 302 303 302 302 301 300 300 300 299 299 299 299 298 297 296
37 31 26 23 21 19 15 11 5 359 353 350 346 342 338 333 334 335 335 335 334 332 332 332 330 328 326 323 320 318 316 314 313 312 310 309 309 308 308 307 307 307 307 306 305 304 303 303 302 302 302 302 302 302 302 302 302 301 301 300 300 300 299 299 299 299 299 298 297
29 21 17 18 19 17 13 7 1 355 350 347 343 339 336 334 334 334 333 333 333 333 333 331 329 326 324 322 319 316 314 312 311 310 309 309 308 308 307 307 306 306 305 305 304 303 302 302 302 301 301 302 302 302 303 302 302 301 300 300 300 300 300 300 300 299 299 299 298
26 15 12 15 18 17 12 6 0 353 347 342 338 336 336 334 332 331 331 333 334 333 332 329 326 324 323 321 319 316 313 311 310 308 308 308 308 307 307 306 305 305 304 304 304 303 302 301 301 301 301 301 302 302 303 302 302 301 300 300 299 300 300 299 300 299 299 299 299
27 15 11 13 14 12 8 1 355 350 343 337 334 334 333 332 331 331 332 333 333 331 329 327 325 323 321 319 317 315 312 310 309 307 306 306 306 306 305 305 304 304 304 303 303 302 302 302 301 301 301 302 302 303 303 302 302 301 301 300 300 300 299 299 299 299 299 299 299
31 21 15 8 3 357 352 349 348 345 340 335 333 331 330 329 330 331 331 332 331 329 327 325 324 322 319 317 315 313 311 309 307 305 304 304 304 304 304 303 303 303 303 302 302 302 302 302 302 302 302 302 303 303 303 303 302 302 301 300 300 300 299 299 299 299 299 299 299
33 22 10 358 350 347 347 347 345 342 338 334 330 329 329 329 330 331 331 330 329 327 325 323 322 320 317 315 313 311 309 307 306 304 303 302 302 302 302 302 302 302 302 302 301 301 301 302 302 302 303 304 304 304 303 303 302 301 301 301 301 300 300 299 299 299 299 299 298
24 9 352 341 344 347 349 347 343 339 334 331 329 328 328 329 331 330 329 328 326 325 324 322 320 317 316 314 312 311 309 307 305 303 302 301 301 301 301 302 302 302 302 301 301 301 301 302 302 303 304 304 304 304 304 303 303 302 302 301 301 301 300 300 300 299 299 299 298
5 345 337 340 348 351 349 344 339 336 332 329 328 327 328 329 330 329 328 326 325 324 322 320 318 316 315 314 312 311 309 307 304 303 301 301 300 300 301 302 302 302 302 301 301 301 302 302 302 303 304 304 304 304 304 304 304 303 302 302 302 301 301 301 300 300 299 299 298
342 335 340 347 351 349 345 339 336 334 331 328 328 329 330 330 330 328 327 326 325 323 321 319 317 315 314 313 312 310 308 306 304 302 301 301 301 301 301 302 302 302 302 302 302 302 302 302 302 303 304 304 305 304 304 305 304 304 303 303 302 302 302 301 301 300 300 299 298
333 341 348 351 349 343 337 334 333 332 330 329 329 330 331 331 330 329 327 326 324 322 320 318 317 315 314 312 311 309 307 305 303 302 301 301 301 302 302 302 302 302 302 302 302 302 302 302 303 303 304 305 305 305 305 305 305 305 304 303 303 303 302 302 301 300 300 299 298
340 350 351 347 339 332 330 331 332 331 331 330 331 332 332 332 331 330 328 326 324 322 321 319 317 315 314 312 310 307 306 304 303 303 303 303 303 303 303 303 303 302 302 301 300 300 301 302 303 304 305 306 306 306 306 306 305 305 305 304 304 303 303 302 301 301 300 300 300
349 350 343 333 326 326 328 330 331 331 330 330 332 334 333 333 332 330 329 326 324 323 321 319 317 315 314 311 308 306 305 304 304 304 304 304 304 304 304 304 303 303 301 300 299 299 300 301 302 304 305 306 306 306 306 306 305 305 305 304 304 303 303 302 301 301 301 301 301
348 335 322 320 321 325 328 329 330 329 330 332 334 335 334 333 332 330 328 326 324 323 321 319 318 316 313 310 308 306 306 305 305 305 305 305 305 305 304 304 303 302 301 300 299 300 300 301 302 303 305 306 307 307 307 306 306 305 304 304 303 303 302 302 303 303 303 303 304
328 316 313 319 323 325 328 329 329 330 332 334 336 335 334 333 331 329 326 324 323 322 321 319 317 315 312 309 307 307 306 306 305 305 304 304 304 305 304 303 303 301 301 300 300 301 301 302 303 304 305 307 307 307 307 307 306 305 305 304 303 302 302 302 303 304 305 306 307
313 313 316 321 325 327 329 330 331 332 334 336 336 335 333 331 329 327 325 323 322 321 320 318 316 314 311 310 308 307 306 306 305 305 304 304 304 303 303 303 302 301 300 301 301 301 302 303 304 305 307 308 308 308 307 307 306 306 305 304 303 303 303 303 304 305 307 308 309
314 318 321 325 328 330 331 331 333 334 336 336 336 334 332 329 327 325 323 322 321 320 319 316 315 312 310 308 308 307 306 306 306 305 305 304 304 303 303 302 302 301 301 301 302 302 303 304 305 307 308 310 310 310 308 307 306 306 305 304 304 303 304 304 305 306 307 308 308
318 322 326 328 329 330 331 332 333 334 336 337 335 333 329 327 325 324 323 321 319 317 315 313 312 309 307 306 307 307 307 307 306 306 305 305 304 303 303 302 302 301 301 302 302 303 304 306 307 308 310 311 311 310 308 307 306 305 305 304 303 303 304 304 305 306 307 308 308
321 325 328 328 329 330 331 332 333 335 337 336 334 330 328 326 324 322 321 319 316 314 312 311 309 307 306 307 307 307 307 307 307 306 306 305 304 303 303 302 302 302 302 303 304 305 306 307 309 310 311 312 312 311 309 308 306 305 304 303 303 304 304 305 306 307 307 307 307
323 326 328 329 328 330 331 333 335 336 336 334 331 328 326 323 321 320 318 316 314 313 311 310 309 308 308 308 308 308 308 307 307 306 305 304 304 303 303 303 303 303 303 304 305 307 308 309 310 311 311 312 312 311 310 308 306 305 303 303 303 304 305 306 307 306 306 306 305
325 328 328 329 329 330 333 334 336 336 335 332 329 326 324 321 319 318 316 315 313 312 310 309 309 309 309 309 309 309 308 307 307 306 305 304 304 303 303 303 303 303 304 306 307 308 309 310 311 311 312 313 312 311 310 308 307 305 304 304 305 305 306 306 306 306 305 305 304
326 328 329 330 332 333 335 336 336 335 332 329 327 324 322 320 318 316 315 314 312 310 309 308 308 308 308 309 309 308 308 307 306 306 305 305 304 303 303 303 304 304 305 307 308 309 310 310 311 311 312 313 313 312 310 309 308 306 306 305 306 307 307 306 306 305 304 304 303
327 329 331 333 335 335 336 336 335 333 330 327 324 322 320 318 316 314 313 312 310 309 308 308 308 308 308 309 308 308 308 307 306 306 305 305 305 304 304 303 304 305 306 308 309 310 310 310 310 311 312 313 313 312 311 310 309 308 308 308 307 307 307 306 305 304 304 303 303
328 331 334 335 336 337 337 336 333 330 327 324 322 319 317 316 313 312 311 311 310 309 309 309 310 310 310 310 309 309 308 307 306 306 305 305 305 305 304 304 305 306 307 308 309 309 310 310 310 311 312 313 313 312 312 311 310 309 309 308 308 307 307 306 305 304 304 304 304
332 335 337 337 337 336 335 333 330 327 323 321 318 316 315 313 311 311 312 312 311 311 310 311 311 311 310 310 309 308 307 306 306 305 305 305 305 305 305 305 306 307 308 308 309 309 309 310 310 312 313 313 313 313 312 311 310 310 309 308 307 307 306 306 306 306 306 306 306
336 338 338 338 336 334 332 330 326 322 318 316 314 313 312 311 310 311 312 312 312 312 311 311 311 311 310 309 308 307 306 305 305 305 305 305 305 305 305 306 306 307 307 308 308 308 309 310 311 312 313 314 313 313 313 312 310 309 309 308 307 307 307 307 307 307 307 306 307
338 339 339 337 334 331 328 324 320 317 314 312 311 310 310 310 310 311 312 312 312 311 311 311 310 310 309 309 308 307 306 305 305 305 305 305 305 305 305 305 305 306 307 307 307 308 309 310 311 312 314 314 314 314 313 312 310 309 308 308 308 308 308 309 309 308 308 307 308
340 339 338 334 331 327 323 319 316 313 311 309 309 309 309 309 309 310 311 312 312 311 311 310 309 309 309 309 308 307 306 305 305 305 305 305 305 306 306 305 305 305 306 307 307 308 309 310 311 313 315 315 315 315 314 312 310 309 309 308 309 309 310 310 309 309 308 309 309
340 337 334 331 326 322 318 314 312 310 308 307 307 307 308 309 310 311 312 313 313 312 311 309 308 308 308 308 307 306 306 305 306 306 306 306 306 306 306 306 305 305 306 306 307 308 309 311 312 314 316 317 317 316 315 313 310 309 309 309 310 310 310 310 310 310 310 311 311